[Iaude] MPEC C20: 2024 BF5 [a=2.28,e=0.60,i=3.9,H=25.4]

mpec at marsden.cfa.harvard.edu mpec at marsden.cfa.harvard.edu
Thu Feb 1 17:58:00 EST 2024


M.P.E.C. 2024-C20                              Issued 2024 February 1, 22:56 UT

     The Minor Planet Electronic Circulars contain information on unusual
         minor planets, routine data on comets and natural satellites,
         and occasional editorial announcements.  They are published
    on behalf of Division F of the International Astronomical Union by the
          Minor Planet Center, Smithsonian Astrophysical Observatory,
                          Cambridge, MA 02138, U.S.A.
			  
             Prepared using the Tamkin Foundation Computer Network

                              MPC at CFA.HARVARD.EDU
            URL https://www.minorplanetcenter.net/    ISSN 1523-6714

                                    2024 BF5                                    


Observations:
     K24B05F* C2024 01 31.28423707 25 06.257+18 46 59.76         20.25wXEC020F52
     K24B05F  C2024 01 31.29651707 25 19.705+18 47 42.82         20.08wXEC020F52
     K24B05F  C2024 01 31.30879107 25 33.084+18 48 25.32         20.18wXEC020F52
     K24B05F KC2024 01 31.41911 07 27 26.22 +18 53 44.2          20.2 RVEC020691
     K24B05F KC2024 01 31.42494 07 27 32.61 +18 54 01.2          20.1 RVEC020691
     K24B05F  C2024 01 31.42499807 27 37.729+18 54 48.41         19.97GVEC020F52
     K24B05F  C2024 01 31.42564307 27 38.378+18 54 50.33         20.32GVEC020F52
     K24B05F KB2024 01 31.77563 07 34 05.86 +19 11 29.8          20.1 GXEC020M45
     K24B05F KB2024 01 31.77900 07 34 09.34 +19 11 39.9                XEC020M45
     K24B05F KC2024 01 31.97592 07 37 27.78 +19 20 54.2          20.1 GVEC020204
     K24B05F KC2024 01 31.98949 07 37 41.05 +19 21 29.9                VEC020204
     K24B05F KC2024 01 31.99723 07 37 48.66 +19 21 50.2                VEC020204
     K24B05F KC2024 02 01.11327807 39 52.28 +19 27 08.6          20.6 GVEC020H21
     K24B05F KC2024 02 01.11607707 39 54.95 +19 27 16.1          20.7 GVEC020H21
     K24B05F KC2024 02 01.11887607 39 57.63 +19 27 23.6          20.7 GVEC020H21
     K24B05F  C2024 02 01.33690307 43 30.416+19 37 14.06         20.03GVEC020F52
     K24B05F  C2024 02 01.33772107 43 31.170+19 37 16.12         20.22GVEC020F52
     K24B05F 1C2024 02 01.83373 07 51 09.11 +19 54 38.2          20.1 VXEC020033
     K24B05F 1C2024 02 01.83449 07 51 09.78 +19 54 39.6          20.2 VXEC020033
     K24B05F 1C2024 02 01.83524 07 51 10.41 +19 54 41.1          20.4 VXEC020033
     K24B05F KC2024 02 01.91845 07 52 20.96 +19 57 49.9          19.9 GVEC020104
     K24B05F KC2024 02 01.93053 07 52 30.97 +19 58 14.6                VEC020104

Observer details:
033 Karl Schwarzschild Observatory, Tautenburg.  Observers S. Melnikov, C.
    Hogner, F. Ludwig, M. Hartmann, B. Stecklum.  Measurer B. Stecklum.
    1.34-m f/3 Schmidt + CCD.
104 San Marcello Pistoiese.  Observers P. Bacci, M. Maestripieri.  Measurer P.
    Bacci.  0.60-m f/4.0 reflector + CCD.
204 Schiaparelli Observatory.  Observer L. Buzzi.  0.84-m f/3.5 reflector +
    CMO.
691 Steward Observatory, Kitt Peak-Spacewatch.  Observer T. H. Bressi.  0.9-m
    f/3 reflector + CCD.
F52 Pan-STARRS 2, Haleakala.  Observers J. Herman, T. Lowe, P. Minguez, A.
    Schultz, I. Smith.  Measurers K. Chambers, T. de Boer, J. Fairlamb, H.
    Gao, M. Huber, C.-C. Lin, E. Magnier, Y. Ramanjooloo, R. Wainscoat, R.
    Weryk.  1.8-m Ritchey-Chretien + CCD.
H21 Astronomical Research Observatory, Westfield.  Observer R. Holmes.
    Measurers T. Linder, R. Holmes, L. Horn.  0.76-m f/3.0 astrograph + CCD.
M45 Starhopper Observatory, Sfantu Gheorghe.  Observer F. Ursache.  0.41-m
    f/7.5 reflector + CMO.

Orbital elements:
2024 BF5                                                 Earth MOID = 0.0152 AU
Epoch 2023 Sept. 13.0 TT = JDT 2460200.5                MPC                     
M 330.44328              (2000.0)            P               Q                  
n   0.28679865     Peri.  308.36682     +0.16386281     -0.98520419             
a   2.2772881      Node   132.12449     +0.92488501     +0.13572566             
e   0.6018360      Incl.    3.88220     +0.34312780     +0.10464817             
P   3.44           H   25.41          G   0.15           U   8                  
Residuals in seconds of arc
240131 F52  0.2+  0.0     240131 M45  1.2-  0.4+    240201 F52  0.1-  0.0
240131 F52  0.2+  0.1+    240131 204  0.3+  0.2-    240201 033  0.1+  0.1+
240131 F52  0.2+  0.0     240131 204  0.1-  0.2-    240201 033  0.4+  0.2-
240131 691  0.3+  0.3+    240131 204  0.4+  0.2-    240201 033  0.2+  0.3-
240131 691  0.5+  0.3-    240201 H21  0.1+  0.1+    240201 104  0.7+  0.0
240131 F52  0.0   0.0     240201 H21  0.0   0.0     240201 104  0.2+  0.3+
240131 F52  0.5-  0.1-    240201 H21  0.0   0.0
240131 M45  1.8-  0.4+    240201 F52  0.3-  0.0

Ephemeris:
2024 BF5                 a,e,i = 2.28, 0.60, 4                   q = 0.9067
Date    TT    R. A. (2000) Decl.     Delta      r    Elong.  Phase     V
2024 01 02    23 09 57.1 -20 29 38   0.1658  0.9136    60.7   110.2    25.5
...
2024 01 17    00 44 20.1 -15 25 52   0.06909 0.9612    69.1   107.1    23.5
...
2024 01 25    04 12 33.6 +03 40 51   0.03929 1.0024   116.4    61.6    20.6
...
2024 01 31    07 19 25.5 +18 30 33   0.05778 1.0390   158.3    20.5    20.3
2024 02 01    07 37 53.4 +19 23 00   0.06330 1.0455   161.6    17.3    20.4
2024 02 02    07 53 30.3 +20 01 22   0.06916 1.0521   164.2    14.8    20.5
...
2024 02 08    08 49 59.8 +21 31 23   0.1089  1.0937   170.0     9.0    21.4
...
2024 02 16    09 21 58.6 +21 39 14   0.1690  1.1537   168.1    10.2    22.5
...
2024 03 02    09 46 53.5 +20 49 39   0.2991  1.2752   159.2    16.0    24.2

A. U. Tomatic                (C) Copyright 2024 MPC           M.P.E.C. 2024-C20





More information about the Iaude mailing list